[[{"header":{"parameterUnit":"m.s-1","parameterCategory":1,"la1":30.2991,"la2":30.254,"lo1":-89.0895,"lo2":-89.0444,"dy":0.0017,"dx":0.0017,"nx":28,"ny":28,"refTime":"2024-11-27T09:00:00:Z","depth":0,"parameterNumber":2,"parameterNumberName":"U-component_of_WINDS"},"data":[0,0,0,0,0,0,0,0,0,0,0,0,0,0,0,0,0,0,0,0,0,0,0,0,0,0,0,0,0,0,0,0,0,0,0,0,0,0,0,0,0,0,0,0,0,0,0,0,0,0,0,0,0,0,0,0,0,0,2.424,2.424,0,2.4217,2.4217,2.4216,2.412,2.4118,2.4116,2.4114,2.4094,2.4095,2.4097,0,0,0,0,0,0,0,0,0,0,0,0,0,2.4203,2.4204,2.424,2.424,2.4239,2.4217,2.4217,2.4216,2.4121,2.4118,2.4115,2.4113,2.4093,2.4095,2.4097,0,0,0,0,0,0,0,0,0,0,0,0,0,2.4204,2.4205,2.424,2.4189,2.4184,2.4217,2.4217,2.4216,2.4121,2.4118,2.4114,2.4111,2.4093,2.4095,2.4097,2.4179,0,0,2.4104,2.4105,0,0,0,0,0,0,0,0,2.4204,2.4205,2.4197,2.4192,2.4187,2.4168,2.4196,2.4204,2.4122,2.4145,2.4114,2.411,2.4121,2.4121,2.4124,2.4178,2.4177,2.4105,2.4106,2.4107,2.4108,0,0,0,0,0,0,0,2.4204,2.4206,2.4231,2.4197,2.4191,2.4168,2.4164,2.4197,2.4153,2.4143,2.4136,2.4134,2.4118,2.4122,2.4123,2.4177,2.4105,2.4107,2.4108,2.4109,2.4295,2.4298,0,0,0,0,0,0,2.4211,2.4206,2.4232,2.423,2.4187,2.4171,2.4167,2.4178,2.4152,2.4145,2.4137,2.413,2.412,2.4121,2.4122,2.4215,2.4107,2.4109,2.4111,2.4291,2.4296,2.4299,0,0,0,0,0,0,2.421,2.4214,2.4233,2.4216,2.4217,2.4175,2.4188,2.4179,2.4183,2.4147,2.4139,2.415,2.4117,2.4119,2.4165,2.4213,2.411,2.4112,2.4287,2.4293,2.4297,2.4402,0,0,0,0,0,0,2.421,2.4214,2.4245,2.4218,2.4218,2.4276,2.4191,2.4181,2.4187,2.4177,2.4157,2.415,2.4115,2.4162,2.4167,2.4214,2.4114,2.4283,2.429,2.4296,2.4394,2.4411,2.4424,0,0,0,0,0,2.4209,2.4276,2.4247,2.425,2.4255,2.4279,2.4279,2.4236,2.4191,2.4221,2.4198,2.4151,2.4207,2.4167,2.4173,2.4221,2.4279,2.4288,2.4295,2.4388,2.4407,2.4424,0,0,0,0,0,0,2.4312,2.4272,2.4239,2.4299,2.4293,2.4262,2.4299,2.4258,2.4265,2.4256,2.4203,2.4199,2.4253,2.4241,2.4198,2.4298,2.4235,2.4244,2.4304,2.4322,2.4337,2.4338,2.4116,0,0,0,0,0,2.4341,2.4363,2.4327,2.4384,2.4382,2.4342,2.435,2.4317,2.4309,2.4306,2.4286,2.4281,2.4297,2.4309,2.4322,2.4392,2.4386,2.4428,2.4443,2.4455,2.4464,2.45,2.4518,2.4325,2.4325,2.4325,0,0,2.4404,2.4384,2.4401,2.4405,2.4396,2.4419,2.434,2.4369,2.4386,2.4311,2.4352,2.4338,2.4328,2.4387,2.4411,2.4379,2.4516,2.4466,2.4476,2.4478,2.451,2.4528,2.4544,2.4331,2.433,2.4329,0,0,2.4528,2.4516,2.4561,2.4553,2.454,2.4512,2.4523,2.4498,2.4485,2.4526,2.4469,2.4489,2.4518,2.4513,2.4514,2.4635,2.4592,2.4641,2.472,2.4754,2.477,2.4783,2.4825,2.4841,2.465,2.465,2.465,0,2.4607,2.464,2.459,2.4622,2.4625,2.4556,2.4601,2.4596,2.4589,2.4593,2.4556,2.459,2.4579,2.4634,2.4663,2.4667,2.4678,2.4643,2.4771,2.4784,2.4795,2.4835,2.4852,2.4656,2.4655,2.4655,2.4654,0,2.4737,2.4761,2.4799,2.4791,2.4798,2.4838,2.4794,2.4807,2.4773,2.4749,2.4791,2.4775,2.4783,2.4793,2.4761,2.4844,2.4824,2.478,2.4716,2.4821,2.4857,2.4872,2.4665,2.4663,2.4661,2.4659,0,0,2.4928,2.489,2.4905,2.49,2.4879,2.4897,2.4933,2.4938,2.495,2.4947,2.4976,2.5001,2.4959,2.4961,2.4928,2.4958,2.5054,2.491,2.4909,2.4937,2.5143,2.5176,2.5195,2.5025,2.5028,2.503,2.5144,0,2.5046,2.5103,2.5059,2.5124,2.5145,2.5078,2.5109,2.51,2.5079,2.5094,2.507,2.5088,2.5032,2.5033,2.506,2.5037,2.5095,2.5028,2.5051,2.5053,2.5056,2.5214,2.5249,2.5358,2.5158,2.5161,2.5162,0,2.5192,2.5193,2.526,2.5233,2.524,2.5269,2.5269,2.5285,2.5273,2.5255,2.5256,2.5213,2.5247,2.5183,2.5228,2.5184,2.519,2.518,2.5183,2.5184,2.5114,2.5219,2.5392,2.5408,2.5184,2.5183,2.5181,0,2.5323,2.5342,2.5383,2.5381,2.5351,2.5373,2.5362,2.5346,2.5352,2.5353,2.5356,2.5362,2.5366,2.5371,2.5332,2.5289,2.5382,2.5315,2.5368,2.5369,2.5391,2.539,2.5567,2.5396,2.5396,2.5395,2.5395,0,2.546,2.5504,2.5442,2.5468,2.5514,2.5463,2.5511,2.5493,2.5479,2.5501,2.5444,2.5466,2.5413,2.5429,2.5398,2.544,2.5442,2.5429,2.542,2.5433,2.5435,2.5437,2.5429,2.54,2.5399,2.5398,2.5397,0,2.5615,2.5575,2.5616,2.5584,2.5576,2.5612,2.5585,2.5607,2.5581,2.5609,2.5613,2.5572,2.5588,2.5549,2.556,2.5539,2.5598,2.5578,2.5602,2.5596,2.565,2.5646,2.5835,2.5857,2.5673,2.5674,2.5676,0,2.5704,2.5736,2.5706,2.5715,2.5706,2.5723,2.5728,2.5678,2.5686,2.5674,2.5698,2.5709,2.5715,2.5744,2.5716,2.5724,2.5703,2.5769,2.5704,2.5716,2.5703,2.5702,2.5704,2.5782,2.5785,2.5786,2.5788,0,2.5868,2.5846,2.5854,2.5856,2.5863,2.5862,2.5858,2.5869,2.5816,2.5828,2.5842,2.5847,2.5857,2.5868,2.5869,2.5858,2.5815,2.5808,2.5821,2.5835,2.5847,2.5841,2.5638,2.5804,2.5803,2.5801,2.5801,2.58,2.5992,2.6016,2.5998,2.6009,2.6,2.5997,2.6016,2.5991,2.6002,2.6005,2.5975,2.5996,2.5983,2.5979,2.5973,2.5989,2.5959,2.5977,2.5982,2.5987,2.5996,2.5845,2.5989,2.5988,2.5988,2.5987,2.5987,0,2.6151,2.6136,2.6147,2.6141,2.615,2.6106,2.6098,2.6109,2.6127,2.6117,2.6124,2.614,2.6151,2.6123,2.6129,2.6147,2.6128,2.6151,2.6149,2.6147,2.6022,2.6011,2.6167,2.6167,2.6167,2.6167,2.6167,2.6167,2.6235,2.6274,2.625,2.6283,2.6267,2.6286,2.6285,2.6282,2.6273,2.6294,2.6301,2.6283,2.6266,2.627,2.6278,2.6269,2.6274,2.6304,2.6289,2.6173,2.6156,2.6139,2.6128,2.6306,2.6306,2.6412,2.6413,2.6414]},{"header":{"parameterUnit":"m.s-1","parameterCategory":1,"la1":30.2991,"la2":30.254,"lo1":-89.0895,"lo2":-89.0444,"dy":0.0017,"dx":0.0017,"nx":28,"ny":28,"refTime":"2024-11-27T09:00:00:Z","depth":0,"parameterNumber":3,"parameterNumberName":"V-component_of_WINDS"},"data":[0,0,0,0,0,0,0,0,0,0,0,0,0,0,0,0,0,0,0,0,0,0,0,0,0,0,0,0,0,0,0,0,0,0,0,0,0,0,0,0,0,0,0,0,0,0,0,0,0,0,0,0,0,0,0,0,0,0,5.6231,5.6233,0,5.6384,5.6385,5.6387,5.6398,5.6396,5.6394,5.6393,5.6542,5.6548,5.6553,0,0,0,0,0,0,0,0,0,0,0,0,0,5.5943,5.5948,5.6231,5.6233,5.6235,5.6383,5.6385,5.6387,5.6398,5.6396,5.6394,5.6392,5.6541,5.6547,5.6554,0,0,0,0,0,0,0,0,0,0,0,0,0,5.6079,5.595,5.6231,5.6258,5.6262,5.6383,5.6385,5.6388,5.6398,5.6396,5.6393,5.6391,5.6538,5.6547,5.6555,5.6656,0,0,5.658,5.6584,0,0,0,0,0,0,0,0,5.6071,5.6089,5.6252,5.6257,5.6261,5.6369,5.6339,5.6478,5.6399,5.6347,5.6393,5.639,5.6486,5.6499,5.6533,5.6663,5.667,5.6581,5.6586,5.659,5.6592,0,0,0,0,0,0,0,5.6062,5.6083,5.6291,5.6255,5.626,5.6261,5.6277,5.6365,5.6428,5.6351,5.6352,5.637,5.6488,5.6525,5.6536,5.6672,5.6581,5.6588,5.6593,5.6596,5.6892,5.6895,0,0,0,0,0,0,5.6048,5.6075,5.6287,5.6296,5.6158,5.6268,5.6287,5.6337,5.6428,5.6439,5.6372,5.637,5.6512,5.6527,5.6542,5.6667,5.6589,5.6597,5.6602,5.6889,5.6893,5.6896,0,0,0,0,0,0,5.6042,5.6067,5.628,5.6186,5.6213,5.6276,5.6332,5.6341,5.6378,5.6444,5.6455,5.6398,5.651,5.653,5.6628,5.6672,5.6601,5.6609,5.6886,5.689,5.6894,5.6917,0,0,0,0,0,0,5.6033,5.6065,5.6106,5.6187,5.6218,5.6366,5.6335,5.6346,5.6393,5.6392,5.6471,5.6482,5.651,5.6616,5.6636,5.6682,5.6615,5.6882,5.6888,5.6893,5.6913,5.6921,5.6929,0,0,0,0,0,5.6023,5.6105,5.6108,5.6133,5.6271,5.6369,5.6387,5.6419,5.6396,5.6437,5.6479,5.6479,5.6663,5.6625,5.6649,5.6698,5.688,5.6886,5.6893,5.6909,5.692,5.6929,0,0,0,0,0,0,5.6025,5.6116,5.612,5.6231,5.6292,5.6371,5.6423,5.643,5.6497,5.6493,5.6528,5.6546,5.6643,5.668,5.6636,5.68,5.6769,5.678,5.6773,5.6784,5.6792,5.6781,5.6622,0,0,0,0,0,5.6039,5.6113,5.6187,5.6277,5.6308,5.636,5.6404,5.6424,5.6488,5.6514,5.6563,5.6623,5.6695,5.6741,5.681,5.6917,5.6934,5.6962,5.697,5.6977,5.6987,5.7045,5.7058,5.6917,5.6917,5.6917,0,0,5.6067,5.6126,5.617,5.6279,5.6329,5.6403,5.6382,5.6461,5.6516,5.6525,5.6622,5.6659,5.6729,5.6832,5.6879,5.6865,5.7029,5.6985,5.699,5.6996,5.7053,5.7066,5.7078,5.6921,5.6921,5.692,0,0,5.6157,5.6209,5.629,5.6341,5.6417,5.6451,5.647,5.6548,5.6574,5.6672,5.668,5.6743,5.6866,5.6915,5.6956,5.7063,5.7065,5.7084,5.7128,5.7184,5.7195,5.7205,5.7243,5.7256,5.7093,5.7094,5.7094,0,5.6182,5.6297,5.633,5.641,5.6457,5.647,5.6551,5.6598,5.6692,5.6723,5.6706,5.686,5.6908,5.7022,5.7048,5.7081,5.7103,5.7076,5.7191,5.7202,5.7211,5.7248,5.7262,5.7095,5.7095,5.7095,5.7095,0,5.6323,5.6402,5.6458,5.6551,5.6604,5.6683,5.6727,5.6776,5.6791,5.6826,5.6923,5.6981,5.7062,5.709,5.7104,5.7206,5.7195,5.7184,5.7154,5.7226,5.7261,5.7275,5.7098,5.7097,5.7097,5.7096,0,0,5.6421,5.6531,5.6551,5.6593,5.6677,5.6738,5.6816,5.6898,5.6939,5.7002,5.7069,5.7171,5.7162,5.7208,5.7227,5.7277,5.7357,5.726,5.7262,5.7276,5.7472,5.748,5.7496,5.7359,5.7361,5.7364,5.7466,0,5.652,5.6665,5.6697,5.682,5.6892,5.6904,5.6972,5.703,5.7064,5.7128,5.7165,5.7238,5.7219,5.7248,5.7297,5.7337,5.7397,5.733,5.7419,5.7422,5.7403,5.7514,5.7524,5.7618,5.748,5.7482,5.7484,0,5.6657,5.6726,5.6856,5.6931,5.6962,5.7024,5.71,5.7162,5.7226,5.7247,5.7299,5.7313,5.7393,5.7357,5.7467,5.7421,5.7459,5.7484,5.7488,5.7498,5.7458,5.7528,5.7649,5.7663,5.7506,5.7504,5.7502,0,5.6715,5.684,5.6934,5.697,5.7058,5.7101,5.714,5.7202,5.7248,5.7314,5.7344,5.7417,5.7457,5.7512,5.7544,5.7516,5.7652,5.7619,5.767,5.767,5.7699,5.7697,5.7829,5.7723,5.7722,5.7722,5.7722,0,5.6824,5.6903,5.6962,5.702,5.7108,5.7143,5.7229,5.7267,5.7322,5.7386,5.7399,5.7458,5.7497,5.7561,5.7587,5.7674,5.7691,5.7709,5.7715,5.7709,5.7707,5.7735,5.7729,5.7726,5.7725,5.7724,5.7724,0,5.6905,5.6947,5.7051,5.7126,5.7147,5.7209,5.7272,5.7328,5.7361,5.7442,5.7463,5.7515,5.7591,5.7628,5.7722,5.7738,5.7837,5.7838,5.7816,5.7818,5.7868,5.7863,5.8022,5.8045,5.7923,5.7924,5.7925,0,5.6972,5.7034,5.7116,5.7161,5.7201,5.7272,5.732,5.7355,5.7403,5.7481,5.7527,5.7604,5.7667,5.7787,5.7832,5.7903,5.7907,5.7958,5.7917,5.7909,5.7908,5.7904,5.791,5.7965,5.7966,5.7967,5.7968,0,5.7087,5.7104,5.7174,5.725,5.7307,5.7368,5.7428,5.7463,5.7507,5.7561,5.764,5.7689,5.7785,5.786,5.7935,5.7972,5.7977,5.798,5.7996,5.799,5.7975,5.7984,5.7836,5.7976,5.7976,5.7975,5.7975,5.7974,5.7163,5.7218,5.7285,5.7361,5.741,5.7466,5.7522,5.7562,5.7629,5.7712,5.7727,5.781,5.7871,5.7972,5.8011,5.8075,5.8064,5.8086,5.8092,5.8097,5.81,5.7964,5.8088,5.8088,5.8088,5.8088,5.8088,0,5.7279,5.7322,5.7392,5.7476,5.7536,5.7536,5.7602,5.7651,5.7725,5.7783,5.7845,5.7934,5.8007,5.8057,5.8131,5.8172,5.8176,5.819,5.8188,5.8196,5.8106,5.8086,5.8186,5.8186,5.8186,5.8186,5.8186,5.8186,5.7347,5.744,5.7465,5.7582,5.7624,5.7707,5.7744,5.7795,5.7841,5.7941,5.8002,5.8035,5.8089,5.8166,5.8232,5.8245,5.8271,5.8285,5.8298,5.8213,5.8203,5.8193,5.8174,5.8291,5.8291,5.8383,5.8383,5.8384]}]]